Hourly Weather Rublyanka

Today, 29 July, Thursday

Time Temperature Precipitation Wind Pressure Humidity
00:00 +20°C° 0 mm 3 mps 733 mmHg 79%
01:00 +20°C° 0 mm 3 mps 732 mmHg 81%
02:00 +19°C° 0 mm 3 mps 732 mmHg 83%
03:00 +19°C° 0 mm 3 mps 732 mmHg 82%
04:00 +19°C° 0 mm 3 mps 732 mmHg 80%
05:00 +20°C° 0 mm 3 mps 732 mmHg 79%
06:00 +21°C° 0 mm 3 mps 732 mmHg 74%
07:00 +24°C° 0 mm 3 mps 732 mmHg 69%
08:00 +26°C° 0 mm 3 mps 732 mmHg 63%
09:00 +27°C° 0 mm 3 mps 732 mmHg 60%
10:00 +28°C° 0 mm 4 mps 732 mmHg 56%
11:00 +30°C° 0 mm 4 mps 732 mmHg 53%
12:00 +30°C° 0 mm 4 mps 732 mmHg 52%
13:00 +30°C° 0 mm 5 mps 732 mmHg 52%
14:00 +32°C° 0 mm 5 mps 732 mmHg 51%
15:00 +30°C° 0.1 mm 6 mps 732 mmHg 56%
16:00 +29°C° 0.1 mm 6 mps 732 mmHg 60%
17:00 +28°C° 0.1 mm 6 mps 732 mmHg 64%
18:00 +26°C° 0 mm 6 mps 732 mmHg 68%
19:00 +25°C° 0 mm 5 mps 732 mmHg 72%
20:00 +22°C° 0 mm 4 mps 732 mmHg 76%
21:00 +21°C° 0 mm 4 mps 732 mmHg 80%
22:00 +20°C° 0 mm 3 mps 733 mmHg 83%
23:00 +19°C° 0 mm 2 mps 733 mmHg 87%

Tomorrow, 30 July, Friday

Time Temperature Precipitation Wind Pressure Humidity
00:00 +19°C° 0 mm 2 mps 733 mmHg 86%
01:00 +18°C° 0 mm 3 mps 733 mmHg 86%
02:00 +18°C° 0 mm 3 mps 733 mmHg 86%
03:00 +18°C° 0 mm 2 mps 733 mmHg 84%
04:00 +18°C° 0 mm 2 mps 733 mmHg 82%
05:00 +18°C° 0 mm 2 mps 733 mmHg 80%
06:00 +19°C° 0 mm 2 mps 733 mmHg 74%
07:00 +21°C° 0 mm 2 mps 734 mmHg 69%
08:00 +24°C° 0 mm 2 mps 734 mmHg 64%
09:00 +25°C° 0 mm 2 mps 734 mmHg 58%
10:00 +27°C° 0 mm 3 mps 734 mmHg 52%
11:00 +28°C° 0 mm 3 mps 734 mmHg 46%
12:00 +29°C° 0 mm 3 mps 734 mmHg 44%
13:00 +29°C° 0 mm 3 mps 733 mmHg 42%
14:00 +30°C° 0 mm 3 mps 733 mmHg 39%
15:00 +30°C° 0 mm 3 mps 733 mmHg 41%
16:00 +30°C° 0 mm 3 mps 732 mmHg 42%
17:00 +30°C° 0 mm 3 mps 732 mmHg 43%
18:00 +28°C° 0 mm 3 mps 732 mmHg 49%
19:00 +26°C° 0 mm 2 mps 732 mmHg 55%
20:00 +24°C° 0 mm 1 mps 732 mmHg 61%
21:00 +23°C° 0 mm 2 mps 732 mmHg 63%
22:00 +23°C° 0 mm 2 mps 732 mmHg 65%
23:00 +21°C° 0 mm 2 mps 732 mmHg 66%

Day after tomorrow, 31 July, Saturday

Time Temperature Precipitation Wind Pressure Humidity
00:00 +21°C° 0 mm 2 mps 732 mmHg 67%
01:00 +21°C° 0 mm 2 mps 732 mmHg 68%
02:00 +20°C° 0 mm 3 mps 732 mmHg 69%
03:00 +20°C° 0 mm 3 mps 732 mmHg 71%
04:00 +20°C° 0 mm 3 mps 732 mmHg 72%
05:00 +19°C° 0 mm 3 mps 732 mmHg 74%
06:00 +21°C° 0 mm 3 mps 732 mmHg 68%
07:00 +23°C° 0 mm 4 mps 732 mmHg 63%
08:00 +26°C° 0 mm 4 mps 732 mmHg 58%
09:00 +28°C° 0 mm 5 mps 732 mmHg 54%
10:00 +29°C° 0 mm 5 mps 732 mmHg 49%
11:00 +32°C° 0 mm 6 mps 732 mmHg 44%
12:00 +32°C° 0 mm 6 mps 732 mmHg 42%
13:00 +33°C° 0 mm 6 mps 732 mmHg 40%
14:00 +34°C° 0 mm 6 mps 731 mmHg 37%
15:00 +33°C° 0 mm 6 mps 731 mmHg 39%
16:00 +33°C° 0 mm 5 mps 731 mmHg 41%
17:00 +33°C° 0 mm 5 mps 730 mmHg 43%
18:00 +30°C° 0 mm 5 mps 730 mmHg 48%
19:00 +28°C° 0 mm 5 mps 730 mmHg 54%
20:00 +26°C° 0 mm 5 mps 730 mmHg 59%
21:00 +25°C° 1.2 mm 4 mps 730 mmHg 68%
22:00 +22°C° 1.2 mm 3 mps 730 mmHg 77%
23:00 +21°C° 1.2 mm 2 mps 730 mmHg 86%

1 August, Sunday

Time Temperature Precipitation Wind Pressure Humidity
00:00 +20°C° 0 mm 2 mps 731 mmHg 90%
01:00 +20°C° 0 mm 3 mps 731 mmHg 93%
02:00 +19°C° 0 mm 3 mps 731 mmHg 96%
03:00 +19°C° 0 mm 3 mps 731 mmHg 94%
04:00 +19°C° 0 mm 3 mps 731 mmHg 92%
05:00 +18°C° 0 mm 4 mps 732 mmHg 90%
06:00 +19°C° 0 mm 3 mps 732 mmHg 87%
07:00 +20°C° 0 mm 2 mps 732 mmHg 83%
08:00 +21°C° 0 mm 2 mps 732 mmHg 79%
09:00 +23°C° 0 mm 1 mps 732 mmHg 71%
10:00 +25°C° 0 mm 1 mps 732 mmHg 64%
11:00 +25°C° 0 mm 0 mps 732 mmHg 56%
12:00 +28°C° 0 mm 1 mps 732 mmHg 51%
13:00 +29°C° 0 mm 1 mps 732 mmHg 47%
14:00 +30°C° 0 mm 2 mps 732 mmHg 42%
15:00 +30°C° 0 mm 2 mps 731 mmHg 43%
16:00 +30°C° 0 mm 3 mps 731 mmHg 44%
17:00 +31°C° 0 mm 3 mps 730 mmHg 44%
18:00 +29°C° 0.1 mm 3 mps 730 mmHg 52%
19:00 +27°C° 0.1 mm 3 mps 730 mmHg 59%
20:00 +25°C° 0.1 mm 3 mps 730 mmHg 66%
21:00 +23°C° 1.9 mm 4 mps 730 mmHg 75%
22:00 +22°C° 1.9 mm 4 mps 730 mmHg 83%
23:00 +20°C° 1.9 mm 4 mps 729 mmHg 91%

2 August, Monday

Time Temperature Precipitation Wind Pressure Humidity
00:00 +20°C° 0 mm 3 mps 729 mmHg 90%
01:00 +20°C° 0 mm 3 mps 729 mmHg 90%
02:00 +20°C° 0 mm 3 mps 728 mmHg 89%
03:00 +19°C° 0 mm 3 mps 728 mmHg 90%
04:00 +19°C° 0 mm 3 mps 728 mmHg 91%
05:00 +18°C° 0 mm 3 mps 728 mmHg 92%
06:00 +20°C° 0 mm 4 mps 728 mmHg 87%
07:00 +21°C° 0 mm 4 mps 728 mmHg 83%
08:00 +22°C° 0 mm 5 mps 729 mmHg 78%
09:00 +23°C° 0 mm 5 mps 729 mmHg 73%
10:00 +25°C° 0 mm 5 mps 729 mmHg 69%
11:00 +26°C° 0 mm 6 mps 729 mmHg 64%
12:00 +24°C° 0.1 mm 6 mps 730 mmHg 66%
13:00 +23°C° 0.1 mm 6 mps 730 mmHg 68%
14:00 +22°C° 0.1 mm 7 mps 730 mmHg 70%
15:00 +22°C° 0 mm 6 mps 731 mmHg 69%
16:00 +21°C° 0 mm 6 mps 731 mmHg 68%
17:00 +21°C° 0 mm 6 mps 732 mmHg 66%
18:00 +20°C° 0 mm 5 mps 732 mmHg 69%
19:00 +19°C° 0 mm 5 mps 732 mmHg 72%
20:00 +16°C° 0 mm 5 mps 732 mmHg 75%
21:00 +15°C° 0 mm 4 mps 733 mmHg 78%
22:00 +14°C° 0 mm 3 mps 733 mmHg 82%
23:00 +14°C° 0 mm 2 mps 734 mmHg 86%

3 August, Tuesday

Time Temperature Precipitation Wind Pressure Humidity
00:00 +14°C° 0 mm 2 mps 734 mmHg 87%
01:00 +13°C° 0 mm 2 mps 734 mmHg 88%
02:00 +13°C° 0 mm 2 mps 734 mmHg 89%
03:00 +13°C° 0 mm 2 mps 734 mmHg 89%
04:00 +13°C° 0 mm 2 mps 734 mmHg 89%
05:00 +13°C° 0 mm 2 mps 734 mmHg 89%
06:00 +15°C° 0 mm 2 mps 735 mmHg 81%
07:00 +17°C° 0 mm 2 mps 735 mmHg 73%
08:00 +19°C° 0 mm 2 mps 735 mmHg 65%
09:00 +20°C° 0 mm 2 mps 735 mmHg 59%
10:00 +23°C° 0 mm 2 mps 735 mmHg 54%
11:00 +24°C° 0 mm 2 mps 735 mmHg 49%
12:00 +25°C° 0 mm 2 mps 735 mmHg 46%
13:00 +26°C° 0 mm 2 mps 735 mmHg 44%
14:00 +27°C° 0 mm 3 mps 734 mmHg 41%
15:00 +26°C° 0 mm 2 mps 734 mmHg 43%
16:00 +26°C° 0 mm 2 mps 734 mmHg 45%
17:00 +25°C° 0 mm 2 mps 734 mmHg 47%
18:00 +24°C° 0 mm 2 mps 734 mmHg 52%
19:00 +23°C° 0 mm 2 mps 734 mmHg 56%
20:00 +21°C° 0 mm 2 mps 734 mmHg 60%
21:00 +20°C° 0 mm 2 mps 734 mmHg 63%
22:00 +19°C° 0 mm 2 mps 734 mmHg 67%
23:00 +18°C° 0 mm 3 mps 734 mmHg 70%
Show more

We Need Your Consent

Meteoprog and our Service Providers may store and access personal data such as cookies, device identifiers or other similar technologies on your device and process such data to personalise content and ads, as well as provide social media features and to analyse the traffic.

  • Store and/or access information on your device

    Cookies, device identifiers or other information can be stored or accessed on your device for the purposes indicated above.

  • Personalised ads and content, ad and content measurement, audience insights, and products development

    Ads and content can be personalised based on a profile. More data can be added to better personalise ads and content. Ad and content performance can be measured. Insights about the audience who saw the ads and content can be derived. Such data can be used to develop or improve user’s experience, systems and software.

By clicking ‘I Agree’ you will allow the use of indicated cookies, device identifiers, web beacons or other similar technologies. Your settings can be changed in the browser on your device.

For certain purposes, legitimate interests may be relied on, rather than consent. You can read more about this in our Privacy and Cookie Policy.